Regional Weather Roundup
Issued by NWS Cleveland, OH

Home | Current Version | Previous Version | Graphics & Text | Print | Product List | Glossary On
Versions: 1 2 3 4 5 6 7 8 9 10 11 12 13 14 15 16 17 18 19 20 21 22 23 24 25 26 27 28 29 30 31 32 33 34 35 36 37 38 39 40 41 42 43 44 45 46 47 48 49 50
000
ASUS41 KCLE 182302
RWRCLE
OHIO REGIONAL WEATHER ROUNDUP
NATIONAL WEATHER SERVICE CLEVELAND, OH
700 PM EDT WED OCT 18 2017

NOTE: "FAIR" INDICATES FEW OR NO CLOUDS BELOW 12,000 FEET WITH NO
SIGNIFICANT WEATHER AND/OR OBSTRUCTIONS TO VISIBILITY.

OHZ001>008-015>018-024>027-034-035-043-044-190000-
   NORTHWEST OHIO

CITY           SKY/WX    TMP DP  RH WIND       PRES   REMARKS
DEFIANCE       CLEAR     63  39  41 S6        30.14S
FINDLAY        CLEAR     60  39  45 S9        30.15F
TOLEDO EXPRESS CLEAR     64  44  48 S6        30.13F
TOLEDO EXEC    CLEAR     63  40  42 S7        30.14F
LIMA           CLEAR     62  40  44 S8        30.17S
$$

OHZ009>014-019>023-028>033-038-089-190000-
   NORTHEAST OHIO

CITY           SKY/WX    TMP DP  RH WIND       PRES   REMARKS
CLE-HOPKINS    PTCLDY    63  41  44 S7        30.20R
CLE-LAKEFRONT  CLEAR     66  40  38 S9        30.17R
CUY CO. ARPT   CLEAR     64  41  42 S14       30.19S
LORAIN-ELYRIA  CLEAR     62  36  37 S8        30.18S
ASHTABULA      CLEAR     60  43  53 S5        30.20S
AKRON-CANTON   PTCLDY    58  40  51 S8        30.21S
WOOSTER        CLEAR     60  39  45 S6        30.21R
MANSFIELD      CLEAR     57  39  51 S8        30.20R
YOUNGSTOWN     PTCLDY    62  42  47 S5        30.21S
$$

OHZ042-051>053-060>062-070>072-077>081-190000-
  SOUTHWEST OHIO

CITY           SKY/WX    TMP DP  RH WIND       PRES   REMARKS
CINC-COVINGTON PTCLDY    63  44  50 SW5       30.21S
CINC-LUNKEN    CLEAR     60  48  64 CALM      30.21S
HAMILTON       CLEAR     60  45  57 S3        30.21S
DAYTON         PTCLDY    61  44  53 S6        30.20S
WRIGHT-PAT AFB NOT AVBL
DAYTON GENERAL CLEAR     60  44  55 S7        30.20S
WILMINGTON     CLEAR     60  43  53 S6        30.21S
$$

OHZ036-037-039>041-045>050-054>059-063>069-073>076-082>088-190000-
  CENTRAL AND SOUTHEAST OHIO

CITY           SKY/WX    TMP DP  RH WIND       PRES   REMARKS
COLUMBUS       PTCLDY    64  40  41 S5        30.20S
OSU AIRPORT    CLEAR     64  42  44 S6        30.20S
BOLTON FIELD   CLEAR     63  43  48 S5        30.21S
RICKENBACK AFB CLEAR     61  40  45 S6        30.21R
NEWARK         CLEAR     63  40  42 S3        30.21R
MARION         CLEAR     60  40  47 S7        30.19S HAZE
LANCASTER      CLEAR     60  42  51 S5        30.22S
ZANESVILLE     CLEAR     62  38  40 S3        30.22S
NEW PHILLY     NOT AVBL
$$




USA.gov is the U.S. government's official web portal to all federal, state and local government web resources and services.